Weather History for KCEZ - February, 2012

Change the Weather History Date:

Wednesday, February 15, 2012

  Actual Average Record
Temperature  
Mean Temperature 28 °F 32 °F  
Max Temperature 41 °F 46 °F 65 °F (2014)
Min Temperature 15 °F 18 °F 9 °F (2009)
Degree Days  
Heating Degree Days 37 33  
Month to date heating degree days 472 516  
Since 1 July heating degree days 4081 4321  
Cooling Degree Days 0 0  
Month to date cooling degree days 0  
Year to date cooling degree days 0  
Moisture  
Dew Point 20 °F    
Average Humidity 68    
Maximum Humidity 91    
Minimum Humidity 44    
Precipitation  
Precipitation 0.00 in 0.04 in 0.01 in (2000)
Month to date precipitation 0.49 0.45  
Year to date precipitation 1.23 1.46  
Sea Level Pressure  
Sea Level Pressure 30.01 in    
Wind  
Wind Speed 4 mph (East)    
Max Wind Speed 15 mph    
Max Gust Speed 18 mph    
Visibility 10 miles    
Events      
T = Trace of Precipitation, MM = Missing Value Source: NWS Daily Summary

Daily Weather History Graph

Daily Weather History Graph

Search for Another Location

Airport or City:

Trip Planner

Search our weather history database for the weather conditions in past years. The results will help you decide how hot, cold, wet, or windy it might be!

Date:

Astronomy

Feb. 15, 2012 Rise Set
Actual Time 7:04 AM MST 5:53 PM MST
Civil Twilight 6:37 AM MST 6:20 PM MST
Nautical Twilight 6:06 AM MST 6:51 PM MST
Astronomical Twilight 5:36 AM MST 7:21 PM MST
Moon 1:56 AM MST (2/15) 11:56 AM MST (2/15)
Length of Visible Light 11h 43m
Length of Day
10h 49m
Last Quarter, 38% of the Moon is Illuminated
Feb 15
Last Quarter
Feb 21
New
Feb 29
First Quarter
Mar 8
Full
Mar 14
Last Quarter

Hourly Weather History & Observations

Time (MST) Temp. Windchill Dew Point Humidity Pressure Visibility Wind Dir Wind Speed Gust Speed Precip Events Conditions
12:53 AM 26.1 °F 21.9 °F 23.0 °F 88% 29.87 in 10.0 mi East 3.5 mph - N/A   Overcast
1:53 AM 27.0 °F 20.5 °F 23.0 °F 85% 29.88 in 10.0 mi ENE 5.8 mph - N/A   Mostly Cloudy
2:53 AM 23.0 °F 17.0 °F 19.9 °F 88% 29.90 in 10.0 mi ENE 4.6 mph - N/A   Partly Cloudy
3:53 AM 19.9 °F 14.9 °F 17.1 °F 89% 29.91 in 10.0 mi East 3.5 mph - 0.01 in   Clear
4:53 AM 18.0 °F 9.8 °F 14.0 °F 84% 29.94 in 10.0 mi NE 5.8 mph - N/A   Clear
5:53 AM 17.1 °F 8.7 °F 12.9 °F 84% 29.99 in 10.0 mi NE 5.8 mph - N/A   Clear
6:53 AM 16.0 °F - 12.9 °F 88% 30.01 in 10.0 mi Calm Calm - N/A   Clear
7:53 AM 19.0 °F 12.3 °F 15.1 °F 85% 30.04 in 10.0 mi East 4.6 mph - N/A   Clear
8:53 AM 25.0 °F 17.1 °F 19.9 °F 81% 30.04 in 10.0 mi East 6.9 mph - N/A   Clear
9:53 AM 32.0 °F - 23.0 °F 69% 30.02 in 10.0 mi Calm Calm - N/A   Clear
10:53 AM 34.0 °F - 21.9 °F 61% 30.02 in 10.0 mi Calm Calm - N/A   Partly Cloudy
11:53 AM 36.0 °F - 23.0 °F 59% 30.00 in 10.0 mi Calm Calm - N/A   Mostly Cloudy
12:53 PM 37.9 °F 34.4 °F 21.0 °F 51% 29.98 in 10.0 mi East 4.6 mph - N/A   Scattered Clouds
1:53 PM 37.9 °F 30.0 °F 21.0 °F 51% 29.96 in 10.0 mi SW 12.7 mph 18.4 mph N/A   Mostly Cloudy
2:53 PM 39.9 °F 33.4 °F 19.0 °F 43% 29.96 in 10.0 mi SSW 10.4 mph - N/A   Mostly Cloudy
3:53 PM 39.0 °F 35.7 °F 19.0 °F 45% 29.99 in 10.0 mi WSW 4.6 mph - N/A   Overcast
4:53 PM 39.0 °F 32.8 °F 19.9 °F 46% 30.01 in 10.0 mi SE 9.2 mph - N/A   Overcast
5:53 PM 37.0 °F - 21.9 °F 54% 30.04 in 10.0 mi Calm Calm - N/A   Overcast
6:53 PM 35.1 °F 28.6 °F 24.1 °F 64% 30.07 in 10.0 mi NW 8.1 mph - N/A   Overcast
7:53 PM 33.1 °F - 25.0 °F 72% 30.09 in 10.0 mi Calm Calm - N/A   Overcast
8:53 PM 30.0 °F 24.1 °F 25.0 °F 82% 30.11 in 10.0 mi NE 5.8 mph - N/A   Mostly Cloudy
9:53 PM 28.9 °F - 24.1 °F 82% 30.09 in 10.0 mi Calm Calm - N/A   Clear
10:53 PM 26.1 °F 21.9 °F 21.9 °F 84% 30.11 in 10.0 mi East 3.5 mph - N/A   Clear
11:53 PM 25.0 °F 18.1 °F 19.9 °F 81% 30.10 in 10.0 mi ENE 5.8 mph - N/A   Clear